Weather in Sasovo

Russia / Ryazan Oblast     54°20′59″N   41°55′26″E
temp.,
°C
wind,
m/s
gust,
m/s
humid.,
%
clouds,
%
prec.,
mm/h
press.,
hPa
HPBL,
m
29 july, thu
thu2900:00+17sse2289100 0.1 101356
03:00+17sse4894100 0.9 1011219
06:00+17sse41193100 0.4 1010390
09:00+21ssw577366 0.7 1008676
12:00+26wsw7956100 0.5 10071805
15:00+26w7949100 1.1 10061842
18:00+25wnw3856100 0.0 10061153
21:00+21wnw3371100 0.0 100644
30 july, fri
fri3000:00+18wsw2282100 0.0 100714
03:00+18sw228596 0.0 100726
06:00+20wsw127678 0.0 100778
09:00+26ssw345291 0.0 1007645
12:00+20nnw5685100 0.5 1007219
15:00+22e357910 1.9 1006314
18:00+24ne217131 0.5 1005505
21:00+19s379712 0.8 1005157
31 july, sat
sat3100:00+18ssw35976 0.1 100696
03:00+18w37961 0.1 1006142
06:00+19wsw37910 0.0 1007234
09:00+25wnw57495 0.0 1007892
12:00+28w683759 0.0 10072425
15:00+29w79295 0.0 10072848
18:00+27wnw693772 0.0 10082221
21:00+21wsw34565 0.0 100943
1 august, sun
sun100:00+19wsw34636 0.0 101046
03:00+18wsw34756 0.0 101155
06:00+19w256655 0.0 1012131
09:00+26sw34407 0.0 1011710
12:00+30wsw4630100 0.0 10111935
15:00+32wsw57293 0.0 10102963
18:00+32sw482710 0.0 10092667
21:00+26s484417 0.0 1009150
2 august, mon
mon200:00+22sw345299 0.0 101049
03:00+21sw2255100 0.0 101025
06:00+22ssw245590 0.0 1010109
09:00+29ssw35365 0.0 1010630
12:00+34ssw57265 0.0 10082767
15:00+36sw682112 0.0 10073691
18:00+32sw101132100 0.1 10061043
21:00+23ssw335592 0.4 100534